Home > Weather > Leiden > Past weeks

Flag for Netherlands Past Weather in Leiden, Netherlands — Yesterday and Last 2 Weeks

Now
57 °F

Fog.


Feels Like: 55 °F
Forecast: 58 / 70 °F
Wind: 8 mph from North

Location: Rotterdam Zestienhoven Airport

Current Time: May 31, 2016 at 4:07:21 AM

Latest Report: May 31, 2016 at 3:25 AM


Visibility: 1 mi

Pressure: 29.68 "Hg

Humidity: 100%

Dew Point: 57 °F

Location of LeidenLocation

Past Weather in Leiden — Graph

°F

Leiden Temperature Yesterday

Maximum temperature yesterday: 59 °F (at 12:25 AM)
Minimum temperature yesterday: 55 °F (at 8:55 PM)
Average temperature yesterday: 57 °F

High & Low Weather Summary for the Past Weeks

 TemperatureHumidityPressure
High73 °F (May 21, 4:25 PM)100% (May 20, 10:25 AM)30.15 "Hg (May 20, 10:25 AM)
Low41 °F (May 16, 2:25 AM)53% (May 21, 4:25 PM)29.65 "Hg (May 18, 5:25 PM)
Average57 °F82%29.91 "Hg
* Reported May 16 2:25 AM — May 31 2:55 AM, Leiden, Weather by CustomWeather, © 2016

Note: Actual official high and low records may vary slightly from our data, if they occured in-between our weather recording intervals... More about our weather records

Advertising

Leiden Weather History for the Previous 24 Hours

Scroll right to see more
 ConditionsComfort  
Time TempWeatherWind HumidityBarometerVisibility
2:55 AM
Tue, May 31
57 °FFog.10 mph100%29.68 "Hg2 mi
2:25 AM57 °FFog.10 mph100%29.68 "Hg2 mi
1:55 AM57 °FFog.12 mph100%29.68 "Hg2 mi
1:25 AM59 °FMostly cloudy.13 mph94%29.68 "Hg4 mi
12:55 AM57 °FFog.10 mph100%29.68 "Hg2 mi
12:25 AM57 °FFog.14 mph100%29.68 "Hg3 mi
11:55 PM
Mon, May 30
57 °FLow clouds.16 mph94%29.68 "Hg4 mi
11:25 PM55 °FLight rain. Passing clouds.15 mph100%29.68 "Hg5 mi
10:55 PM57 °FSprinkles. Passing clouds.12 mph94%29.68 "Hg6 mi
10:25 PM57 °FLight rain. Partly sunny.10 mph94%29.71 "HgN/A
9:55 PM55 °FStrong thunderstorms. Broken clouds.15 mph100%29.71 "Hg2 mi
9:25 PM55 °FThunderstorms. Broken clouds.16 mph100%29.68 "Hg2 mi
8:55 PM55 °FThunderstorms. Broken clouds.12 mph100%29.68 "Hg2 mi
8:25 PM57 °FThunderstorms. Partly sunny.12 mph94%29.71 "Hg2 mi
7:55 PM57 °FThunderstorms. Broken clouds.13 mph94%29.68 "Hg1 mi
6:55 PM57 °FFog.15 mph100%29.68 "Hg2 mi
6:25 PM57 °FFog.16 mph100%29.68 "Hg2 mi
5:55 PM59 °FFog.16 mph94%29.68 "Hg3 mi
5:25 PM59 °FFog.16 mph94%29.68 "Hg3 mi
4:55 PM59 °FFog.15 mph94%29.68 "Hg3 mi
4:25 PM59 °FLow clouds.16 mph94%29.68 "Hg4 mi
3:55 PM59 °FLow clouds.20 mph94%29.68 "Hg4 mi
3:25 PM59 °FLow clouds.15 mph94%29.71 "Hg4 mi
2:55 PM57 °FLow clouds.16 mph100%29.71 "Hg4 mi
2:25 PM57 °FLow clouds.17 mph94%29.71 "Hg4 mi
1:55 PM57 °FFog.16 mph94%29.74 "Hg3 mi
1:25 PM57 °FLow clouds.17 mph94%29.74 "Hg4 mi
12:55 PM57 °FLow clouds.17 mph94%29.74 "Hg4 mi
12:25 PM57 °FFog.16 mph94%29.74 "Hg3 mi
11:55 AM57 °FFog.15 mph94%29.74 "Hg3 mi
10:55 AM57 °FFog.17 mph94%29.74 "Hg2 mi
10:25 AM57 °FDrizzle. Mostly cloudy.17 mph100%29.74 "Hg2 mi
9:55 AM57 °FFog.15 mph94%29.74 "Hg1 mi
9:25 AM57 °FFog.16 mph94%29.74 "Hg1 mi
8:55 AM57 °FFog.14 mph94%29.74 "Hg2 mi
8:25 AM57 °FFog.15 mph94%29.74 "Hg3 mi
7:55 AM57 °FFog.15 mph94%29.74 "Hg2 mi
7:25 AM57 °FFog.14 mph94%29.74 "Hg3 mi
6:55 AM57 °FFog.13 mph94%29.74 "Hg3 mi
6:25 AM57 °FLow clouds.13 mph94%29.74 "Hg4 mi
5:55 AM57 °FFog.12 mph100%29.74 "Hg3 mi
5:25 AM57 °FFog.9 mph100%29.77 "Hg3 mi
4:55 AM57 °FFog.12 mph100%29.74 "Hg2 mi
4:25 AM57 °FFog.10 mph100%29.74 "Hg2 mi
Weather by CustomWeather, © 2016

See weather overviewHow to use our weather pages